Home > Weather > Plano > Past weeks

Flag for USA Past Weather in Plano, Texas, USA — Yesterday and Last 2 Weeks

Now
90 °F

Passing clouds.


Feels Like: 97 °F
Forecast: 78 / 95 °F
Wind: 7 mph from Northwest

Location: McKinney Municipal Airport

Current Time: Jul 29, 2016 at 2:53:14 PM

Latest Report: Jul 29, 2016 at 1:53 PM


Visibility: 10 mi

Pressure: 29.98 "Hg

Humidity: 56%

Dew Point: 72 °F

Location of PlanoLocation

Past Weather in Plano — Graph

°F

Plano Temperature Yesterday

Maximum temperature yesterday: 94 °F (at 2:53 PM)
Minimum temperature yesterday: 76 °F (at 2:53 AM)
Average temperature yesterday: 84 °F

High & Low Weather Summary for the Past Weeks

 TemperatureHumidityPressure
High98 °F (Jul 22, 4:53 PM)97% (Jul 26, 4:53 AM)30.20 "Hg (Jul 26, 4:53 AM)
Low68 °F (Jul 15, 9:55 AM)36% (Jul 22, 2:53 PM)29.84 "Hg (Jul 23, 6:53 PM)
Average84 °F68%29.99 "Hg
* Reported Jul 14 1:53 PM — Jul 29 1:53 PM, Plano, Weather by CustomWeather, © 2016

Note: Actual official high and low records may vary slightly from our data, if they occured in-between our weather recording intervals... More about our weather records

Advertising

Plano Weather History for the Previous 24 Hours

Scroll right to see more
 ConditionsComfort  
Time TempWeatherWind HumidityBarometerVisibility
1:53 PM
Fri, Jul 29
90 °FPassing clouds.7 mph56%29.98 "Hg10 mi
12:53 PM87 °FBroken clouds.5 mph59%30.01 "Hg10 mi
11:53 AM86 °FOvercast.9 mph61%30.02 "Hg10 mi
10:53 AM87 °FPartly sunny.9 mph57%30.00 "Hg10 mi
9:53 AM84 °FPassing clouds.14 mph65%30.01 "Hg10 mi
8:53 AM81 °FPartly sunny.9 mph77%30.01 "Hg10 mi
7:53 AM77 °FPartly sunny.3 mph88%30.00 "Hg10 mi
6:53 AM75 °FPassing clouds.5 mph90%29.96 "Hg10 mi
5:53 AM74 °FClear.6 mph94%29.94 "Hg10 mi
4:53 AM75 °FClear.7 mph90%29.93 "Hg10 mi
3:53 AM75 °FClear.5 mph90%29.94 "Hg10 mi
2:53 AM76 °FClear.6 mph88%29.93 "Hg10 mi
1:53 AM77 °FClear.10 mph82%29.93 "Hg10 mi
12:53 AM77 °FClear.5 mph85%29.95 "Hg10 mi
11:53 PM
Thu, Jul 28
78 °FClear.5 mph82%29.93 "Hg10 mi
10:53 PM79 °FClear.5 mph79%29.93 "Hg10 mi
9:53 PM81 °FClear.7 mph72%29.92 "Hg10 mi
8:53 PM83 °FSunny.15 mph65%29.93 "Hg10 mi
7:53 PM86 °FBroken clouds.9 mph63%29.92 "Hg10 mi
6:53 PM88 °FThundershowers. Passing clouds.16 mph59%29.88 "Hg10 mi
5:53 PM94 °FSunny.8 mph49%29.86 "Hg10 mi
4:53 PM94 °FPassing clouds.7 mph46%29.88 "Hg10 mi
3:53 PM94 °FPassing clouds.5 mph46%29.89 "Hg10 mi
2:53 PM94 °FSunny.No wind44%29.91 "Hg10 mi
Weather by CustomWeather, © 2016

See weather overviewHow to use our weather pages